www.pogodaiklimat.ru

Погода и климат >> Архив погоды >> Россия >> Челябинская область >> Магнитогорск


АРХИВ ПОГОДЫ в Магнитогорске

Время (UTC), дата Ветер
(напр.,м/с)
 
Видим.   Явления Облачность Т
(С)
Тd
(С)
f
(%)
Тe
(С)
Тes
(С)
Комфортность P
(гПа)
Po
(гПа)
Тmin
(С)
Tmax
(С)
R
(мм)
R24
(мм)
S
(см)
06 18.08 З 1 20 км 4/0
[Ci fib]
+27.2 +13.8 44 +29 +40 жарко 1018.5 975.4
09 18.08 З 1 20 км 8/0
[Ci fib]
+29.6 +10.2 30 +30 +41 жарко 1018.2 975.4
12 18.08 З 3
{13}
20 км 8/0
[Cs]
+30.3 +7.8 24 +29 +33 жарко 1018.2 975.5
15 18.08 З 1 20 км 3/0
[Cc]
+26.8 +8.9 32 +27 +27 жарко 1019.2 975.9 +31.6
18 18.08 СЗ 1 10 км 4/0
[Ac trans]
+20.8 +13.4 63 +24 +24 комфорт 1021.4 977.3
21 18.08 С 2 10 км ясно +17.5 +12.8 74 +18 +18 тепло 1022.3 977.6
00 19.08 С 2 10 км 9/9 600 м
[Sc]
+17.4 +14.1 81 +18 +18 тепло 1023.3 978.5
03 19.08 СВ 3 20 км 8/0
[Ac cast]
+22.0 +14.7 63 +25 +26 комфорт 1023.7 979.6 +15.6
06 19.08 СВ 3 20 км 9/9 1000 м
[Sc]
+23.8 +15.2 59 +27 +28 жарко 1024.1 980.3
09 19.08 В 2 20 км 8/0
[Ac trans]
+27.2 +14.7 46 +30 +36 душно 1023.4 980.1
12 19.08 ЮЗ 2 20 км 10/10 600 м
[Sc]
+26.7 +14.5 47 +29 +29 жарко 1023.1 979.7
15 19.08 СЗ 1 20 км 10/10 600 м
[Sc]
+24.8 +16.3 59 +28 +28 жарко 1023.6 980.0 +27.8
18 19.08 С 2 10 км 9/9 600 м
[Sc]
+19.5 +15.3 77 +22 +22 комфорт 1025.1 980.6
21 19.08 С 2 10 км 10/10 600 м
[Sc]
+17.9 +15.0 83 +18 +18 тепло 1024.3 979.6
00 20.08 ЮЗ 1 10 км 10/10 600 м
[Sc]
+17.9 +15.7 87 +19 +19 тепло 1024.3 979.6
03 20.08 СВ 1 20 км {ливн. осадки} 10/10 600 м
[Cb cap]
+19.2 +16.4 84 +22 +22 комфорт 1022.5 978.1 +16.3 0.0
06 20.08 ЮЗ 2 20 км {ливн. осадки} 9/9 600 м
[Cb cap]
+24.3 +16.2 61 +28 +29 душно 1020.9 977.3
09 20.08 ЮВ 3 20 км {ливн. осадки} 10/10 600 м
[Cb cap]
+24.7 +14.2 52 +27 +27 жарко 1020.3 976.7
12 20.08 СВ 2 20 км {ливн. осадки} 10/10 600 м
[Sc]
+25.1 +15.0 53 +28 +28 жарко 1018.9 975.4
15 20.08 СВ 2 20 км 9/9 600 м
[Sc]
+21.9 +15.4 67 +26 +26 душно 1018.1 974.3 +26.0 0.0
18 20.08 З 2 10 км 8/8 600 м
[Sc]
+20.7 +12.0 57 +23 +23 комфорт 1015.9 972.0
21 20.08 СЗ 3 10 км 3/0
[Ac trans]
+20.2 +13.1 64 +23 +23 комфорт 1014.8 970.8
00 21.08 СЗ 2 10 км ясно +19.0 +13.5 70 +21 +21 комфорт 1014.6 970.5
03 21.08 СЗ 4 20 км ясно +20.5 +14.1 67 +23 +24 комфорт 1014.6 970.7 +17.8
06 21.08 С 6-10
{11}
20 км 6/6 600 м
[Cb cap]
+21.7 +13.4 59 +24 +26 комфорт 1015.4 971.6
09 21.08 СВ 6
{11}
20 км 8/8 600 м
[Cb cap]
+22.0 +14.5 62 +25 +26 комфорт 1016.2 972.4
12 21.08 СВ 7-10
{10}
20 км 10/10 600 м
[Cb cap]
+21.2 +13.9 63 +24 +24 комфорт 1017.1 973.2
15 21.08 СВ 4
{10}
20 км 10/10 600 м
[Cb cap]
+18.3 +12.4 68 +18 +18 по сезону 1018.8 974.4 +23.7
18 21.08 С 3 10 км 8/8 600 м
[Sc]
+17.2 +12.3 73 +17 +17 тепло 1020.2 975.5
21 21.08 СВ 3 10 км 3/3 600 м
[Sc]
+12.6 +9.7 82 +11 +11 по сезону 1021.6 976.2
00 22.08 С 3 10 км ясно +10.4 +7.9 84 +8 +8 по сезону 1022.5 976.6
03 22.08 С 2 20 км 6/0
[Ci fib]
+13.9 +9.8 76 +13 +15 по сезону 1023.3 977.9 +10.0
06 22.08 СВ 1 20 км 4/4 600 м
[Sc]
+18.6 +9.6 56 +20 +27 тепло 1022.1 977.6
09 22.08 СВ 2 20 км 4/4 600 м
[Cu hum]
+21.5 +7.7 41 +22 +29 комфорт 1021.1 976.9
12 22.08 С 1 20 км ясно +23.1 +6.1 33 +24 +29 комфорт 1020.4 976.5
15 22.08 СВ 2 20 км ясно +18.3 +7.7 50 +19 +19 тепло 1021.1 976.5 +23.4
18 22.08 СЗ 1 10 км ясно +12.6 +7.9 73 +13 +13 по сезону 1022.4 976.9
21 22.08 штиль 0 10 км ясно +10.6 +7.8 83 +10 +10 по сезону 1023.3 977.4
00 23.08 С 1 10 км ясно +8.8 +7.0 88 +8 +8 по сезону 1023.7 977.5
03 23.08 штиль 0 20 км ясно +13.3 +9.4 77 +13 +15 по сезону 1022.8 977.4 +7.9
06 23.08 ЮЗ 3 20 км 3/0
[Ci fib]
+22.2 +8.4 41 +23 +31 комфорт 1021.1 977.1
09 23.08 З 5 20 км 4/0
[Ci]
+26.1 +8.5 33 +26 +32 жарко 1019.4 976.0
12 23.08 З 3 20 км 3/0
[Ci]
+26.8 +8.9 32 +27 +30 жарко 1018.4 975.1
15 23.08 З 3 20 км 3/0
[Cs]
+23.7 +9.6 41 +25 +25 комфорт 1018.9 975.2 +27.2
18 23.08 В 1 10 км ясно +17.0 +11.0 68 +18 +18 тепло 1020.0 975.3
21 23.08 Ю 1 10 км ясно +14.7 +11.6 82 +15 +15 тепло 1019.9 974.9
00 24.08 В 2 10 км 6/0
[Ac trans]
+13.6 +11.3 86 +13 +13 тепло 1020.8 975.6
03 24.08 СВ 3 20 км 9/9 600 м
[Sc]
+17.2 +13.3 78 +17 +17 тепло 1021.5 976.8 +13.0
06 24.08 СВ 2 20 км 10/10 600 м
[Sc]
+19.0 +10.3 57 +20 +20 тепло 1021.6 977.1
09 24.08 З 1 20 км 4/4 600 м
[Cu med, cong]
+23.0 +11.3 48 +25 +33 комфорт 1019.6 975.8
12 24.08 В 1 20 км 8/0
[Cs]
+24.4 +9.6 39 +25 +29 комфорт 1018.3 974.7
15 24.08 С 2 20 км 8/0
[Ac trans]
+20.3 +1.3 28 +21 +21 комфорт 1019.1 974.8 +24.8
18 24.08 С 4 10 км ясно +14.9 +7.3 60 +14 +14 по сезону 1020.7 975.6
21 24.08 С 4 10 км ясно +13.1 +6.3 63 +12 +12 по сезону 1020.4 975.1
00 25.08 С 3 10 км 3/3 1000 м
[Sc]
+12.0 +6.4 69 +11 +11 по сезону 1019.8 974.3

 

Местоположение метеостанции Магнитогорск (Челябинская область, Россия): широта 53.35 долгота 59.08 высота над уровнем моря 384 м.

В архиве по умолчанию представлена погода в Магнитогорске за последнюю неделю. Архивные данные за месяц целиком и за предыдущие месяцы, начиная с января 2011 года, Вы можете получить, выбрав интересующий диапазон дат из раскрывающегося списка и нажав кнопку "Ввод!".


*Определитесь, кто Вы:
робот инопланетянин человек

Внимание! Время в таблицах - всемирное. Для получения местного времени необходимо прибавить поправку, которая равна 5 ч.

Смотрите также архив погоды в соседних городах и на ближайших метеорологических станциях:

Погода в Верхнеуральске (Челябинская область, Россия) (59 км)
Погода в Кизильском (Челябинская область, Россия) (71 км)
Погода в Белорецке (Башкирия, Россия) (81 км)
Погода в Карталы (Челябинская область, Россия) (111 км)
Погода в Тукане (Башкирия, Россия) (112 км)
Погода в Старосубхангулово (Башкирия, Россия) (113 км)
Погода в Учалах (Башкирия, Россия) (115 км)
Погода в Николаевке (Башкирия, Россия) (116 км)
Погода в Бредах (Челябинская область, Россия) (133 км)
Погода в Ревети (Башкирия, Россия) (133 км)

Пояснения к столбцам:

Ветер - указаны скорость ветра в м/с - средняя за 10 мин, порывы в срок и между сроками (в фигурных скобках) и направление, откуда дует ветер: С - северный, СВ - северо-восточный, В - восточный, ЮВ - юго-восточный, Ю - южный, ЮЗ - юго-западный, З - западный, СЗ - северо-западный.
Видимость - горизонтальная дальность видимости в метрах или километрах. При видимости от 1 до 10 км при отсутствии осадков обычно наблюдается дымка, при ухудшении видимости до 1 км и менее - туман. В сухую погоду видимость может ухудшаться дымом, пылью или мглою.
Явления - указаны атмосферные явления, наблюдавшиеся в срок или в последний час перед сроком; фигурными скобками обозначены явления, наблюдавшиеся между сроками (за 1-3 часа до срока); квадратными скобками обозначены град или гололедные отложения с указанием их диаметра в мм.
Облачность - указаны через наклонную черту общая и нижняя облачность в баллах и высота нижней границы облаков в метрах; квадратными скобками обозначены формы облаков: Ci - перистые, Cs - перисто-слоистые, Cc - перисто-кучевые, Ac - высококучевые, As - высокослоистые, Sc - слоисто-кучевые, Ns - слоисто-дождевые, Cu - кучевые, Cb - кучево-дождевые. Подробнее классификацию облаков см. в Атласе облаков (PDF).
T - Температура воздуха - температура, измеренная на высоте 2 м над землей.
Td - Температура точки росы - температура, при понижении до которой содержащийся в воздухе водяной пар достигнет насыщения.
f - Относительная влажность воздуха - влажноcть воздуха, измеренная на высоте 2 м над землей.
Te - Эффективная температура - температура, которую ощущает одетый по сезону человек в тени. Характеристика душности погоды. При расчете учитывается влияние влажности воздуха и скорости ветра на теплоощущения человека.
Tes - Эффективная температура на солнце - температура, которую ощущает человек, с поправкой на солнечный нагрев. Характеристика знойности погоды. Зависит от высоты солнца над горизонтом, облачности и скорости ветра. Ночью, в пасмурную погоду, а также при ветре 12 м/с и более поправка равна нулю.
P - Атмосферное давление - приведенное к уровню моря атмосферное давление.
Po - Атмосферное давление - измеренное на уровне метеостанции атмосферное давление.
Tmin - Минимальная температура - минимум температуры воздуха на высоте 2 м над землей.
Tmax - Максимальная температура - максимум температуры воздуха на высоте 2 м над землей.
R - Количество осадков - Количество выпавших осадков за период времени, мм. При наведении курсора мыши на число - период времени, за который выпало указанное количество осадков.
R24 - Количество осадков - Количество выпавших осадков за 24 часа, мм.
S - Снежный покров - Высота снежного покрова, см. При наведении курсора мыши на число - состояние снежного покрова и степень покрытия местности в баллах.